Location: Little Baddow
(51.7333°N, 0.5667°E)
Time: 09:26:30
(UTC+00:00)

H-2A R/B - Pass Details

Date: 08 November 2025
Orbit: 728 x 830 km, 98.3° (Epoch: 11 December)

Event Time Altitude Azimuth Distance (km) Brightness Sun altitude
Rises 05:03:28 0° 6° (N) 3,231 5.3 -18.8°
Reaches altitude 10° 05:06:21 10° 349° (N) 2,284 4.3 -18.4°
Enters shadow 05:08:29 18° 326° (NW) 1,804 3.6 -18.1°
